Location: Geçitköy
(36.7327°N, 29.8010°E)
Time: 20:13:41
(UTC+00:00)

Landsat 7 - Pass Details

Date: 12 January 2026
Orbit: 680 x 682 km, 97.9° (Epoch: 11 February)

Event Time Altitude Azimuth Distance (km) Brightness Sun altitude
Rises 15:49:24 0° 174° (S) 3,027 7.3 -8.9°
Reaches altitude 10° 15:51:38 10° 178° (S) 2,116 6.5 -9.4°
Maximum altitude 15:56:14 63° 259° (W) 759 4.3 -10.2°
Drops below altitude 10° 16:00:51 10° 341° (NNW) 2,130 6.3 -11.1°
Sets 16:03:08 0° 345° (NNW) 3,049 7.1 -11.5°
